Theta_e
306 304 304 310 310 312 313 314 316 320 322 322 322 322 322 322 322 322 322 322 322 323 323 324 325 326 328 329 329 329 330 330 331 332 331 332 332 332 333 333 333 334 335 336 340 341 342 343 342 343 343 343 345 341 340 342 343 342 343 344 343 344 344 344 344 342 346 339 339 340 344 343 341 341 340 340 339 338 337 338 338 336 336 338 338
307 305 303 303 310 310 312 313 316 319 321 321 321 321 321 320 321 321 320 321 321 322 323 323 325 326 327 328 329 329 329 329 330 330 331 331 332 332 332 333 333 335 336 336 339 340 341 341 342 341 340 342 343 344 340 340 343 341 342 343 344 342 343 340 340 340 341 337 338 339 339 339 339 340 339 339 338 337 335 335 336 333 335 338 338
308 307 303 303 309 309 311 313 315 318 320 320 321 321 320 320 320 320 320 320 321 321 322 323 325 326 327 327 327 328 329 329 329 330 330 329 329 332 333 333 334 335 335 336 337 338 339 341 341 341 340 340 340 341 340 339 339 341 340 343 343 342 340 340 339 339 338 335 338 339 341 337 334 337 337 337 337 334 333 333 332 335 334 336 334
307 305 303 305 308 308 311 313 315 317 319 320 320 320 319 318 318 319 319 319 320 321 322 323 325 326 327 327 327 327 327 328 328 329 329 329 329 329 332 332 333 334 335 335 335 337 338 340 339 339 340 340 339 341 341 340 341 341 340 341 340 340 339 339 338 338 338 335 338 338 335 331 333 335 335 335 337 334 332 332 331 335 335 333 333
306 304 304 303 302 307 311 312 314 317 318 319 319 319 318 318 318 318 318 318 319 320 322 323 324 325 326 326 327 328 327 327 327 328 328 328 329 329 329 331 333 333 334 334 334 336 337 339 337 337 339 341 343 343 343 341 341 340 340 341 340 339 339 338 337 337 336 335 335 335 330 329 329 335 335 336 336 333 331 330 330 330 333 334 334
305 304 304 301 301 305 311 311 313 316 317 318 318 318 317 317 317 317 318 319 319 320 321 322 323 325 325 326 327 326 327 327 327 326 327 327 328 328 328 329 331 332 332 332 334 334 336 337 337 338 338 340 338 340 341 342 341 340 340 340 341 339 339 338 337 336 338 338 339 329 327 327 328 332 337 337 336 333 331 331 329 330 334 334 335
306 304 305 302 302 305 311 311 313 314 316 317 317 317 317 317 317 317 317 318 319 320 321 321 322 324 324 325 326 327 327 327 326 326 327 327 327 327 327 327 328 330 330 331 331 333 334 334 335 336 336 337 339 339 341 340 341 341 339 340 341 340 338 338 336 337 338 335 327 327 325 326 328 332 339 337 338 335 332 333 331 332 333 333 334
304 307 303 302 303 307 310 311 312 313 316 316 317 316 316 316 316 316 317 318 318 319 320 320 321 323 325 326 326 327 326 326 326 325 326 326 325 325 325 325 327 328 329 330 331 332 331 333 334 334 335 336 337 338 339 339 340 341 341 340 340 339 337 336 335 337 337 328 326 326 324 325 331 333 339 338 339 336 334 333 332 334 335 334 331
304 303 302 302 303 308 310 310 311 313 314 315 316 315 315 315 315 316 317 318 318 318 318 319 321 323 324 325 325 326 326 326 324 325 324 324 324 324 325 324 325 327 329 329 330 329 331 332 332 333 334 334 335 337 337 339 339 340 340 339 340 339 338 336 335 338 336 328 325 325 323 325 327 332 339 338 339 336 334 334 335 334 335 332 330
302 302 302 302 304 308 310 310 310 312 314 314 315 314 314 314 314 315 316 317 317 317 317 318 321 323 323 324 325 325 325 324 325 324 324 324 323 323 323 323 324 326 327 328 329 329 330 330 331 331 332 332 335 336 337 339 340 341 341 339 340 339 338 336 336 338 330 326 325 325 328 338 326 330 337 339 338 335 336 335 338 335 333 331 328
303 302 302 302 306 309 309 310 311 312 313 313 314 314 313 313 314 314 315 316 316 317 316 318 321 322 323 324 324 324 324 323 323 323 324 324 323 323 322 321 322 324 326 327 328 328 328 328 329 330 329 331 332 334 335 338 339 340 339 338 339 338 340 338 338 333 331 326 323 325 332 337 325 332 340 339 338 335 336 335 334 333 331 328 323
303 302 302 303 311 308 309 310 311 312 312 313 313 313 313 313 313 313 314 315 316 315 316 318 322 322 323 323 323 323 323 322 322 322 322 324 323 322 322 321 320 322 324 325 326 326 326 327 327 328 328 329 330 332 334 337 338 337 338 338 335 336 339 338 334 327 326 327 324 324 322 324 326 337 341 340 337 336 336 336 333 332 332 330 324
306 303 302 303 306 308 309 310 310 311 312 312 313 313 313 313 313 313 313 314 315 315 316 318 321 322 322 322 322 322 322 322 321 321 321 322 322 321 321 321 320 320 322 324 325 325 325 325 326 326 327 328 329 332 334 335 337 337 338 337 337 336 338 337 330 327 325 325 325 323 321 322 331 341 341 339 338 336 337 335 333 332 332 330 329
305 304 303 303 304 312 309 309 310 310 311 311 312 313 313 313 313 313 312 313 314 314 315 317 320 322 321 321 321 320 320 320 320 320 320 320 320 320 319 320 319 319 321 322 323 323 323 323 325 325 326 327 328 330 331 334 336 337 338 337 337 336 337 335 331 326 326 324 325 322 319 322 334 338 338 336 335 336 337 331 328 329 332 332 331
303 307 306 305 303 305 313 309 309 309 310 311 311 312 313 313 312 313 312 312 314 314 314 316 318 320 320 320 320 319 319 318 318 317 317 317 317 318 318 318 318 318 317 320 320 321 321 322 323 324 325 326 329 330 331 333 335 336 336 337 337 335 335 331 330 326 326 327 325 325 319 320 338 337 335 332 330 330 330 329 329 328 331 332 331
307 306 307 304 305 305 304 311 309 309 310 310 310 311 311 312 312 312 312 312 313 314 313 314 316 318 319 318 319 319 318 318 316 316 316 316 316 315 316 317 316 316 317 317 318 320 321 321 322 323 324 326 328 328 330 333 335 335 336 336 336 335 333 331 328 327 327 325 324 324 323 327 334 334 333 332 330 329 330 330 330 331 331 332 332
309 308 306 305 307 304 303 304 308 310 309 309 309 309 310 311 311 311 312 313 313 313 312 313 314 316 318 317 318 318 318 317 316 316 316 315 314 313 314 315 316 316 316 318 319 319 320 321 321 322 324 325 326 326 329 332 334 334 335 336 335 334 331 330 328 326 326 327 326 324 323 326 330 330 329 330 330 330 330 330 334 332 331 332 332
309 309 306 304 304 305 303 304 304 303 303 307 310 309 310 311 311 312 313 312 311 311 311 312 312 314 316 316 317 317 316 315 316 316 315 314 314 313 314 314 315 315 314 315 317 318 319 320 321 322 322 323 324 324 326 330 333 333 334 335 333 332 330 329 332 329 328 330 326 327 325 331 330 330 329 329 330 331 332 333 333 333 333 333 333
305 305 305 304 304 305 304 303 304 303 303 302 302 304 309 310 311 311 309 309 309 309 310 310 310 311 313 314 315 314 314 314 314 315 314 313 314 313 312 312 314 314 315 315 317 318 318 319 320 321 321 322 323 323 325 329 331 332 335 332 332 330 329 329 330 330 329 326 326 326 325 333 330 330 330 330 331 332 333 333 333 334 334 334 334
304 304 304 304 303 303 304 303 303 302 303 303 302 302 308 309 309 308 308 307 307 307 308 307 307 309 311 313 314 311 310 309 314 310 312 313 312 311 312 312 313 313 313 315 315 316 317 318 319 320 320 320 321 322 325 328 329 332 332 331 330 329 329 329 331 329 327 327 327 329 335 330 330 330 330 329 330 332 334 334 333 334 334 335 334
309 304 306 303 303 303 303 302 302 303 302 302 303 303 305 309 307 309 308 307 307 306 307 307 308 309 310 311 311 307 307 307 308 308 311 309 311 311 311 312 312 312 312 313 314 315 316 317 318 318 319 319 320 322 324 326 327 331 330 329 328 329 329 330 330 327 326 326 326 331 335 333 332 332 330 330 330 332 334 333 334 334 334 334 334
301 302 303 303 302 302 303 302 301 301 302 305 306 305 304 305 300 300 300 303 305 308 302 302 307 303 310 307 307 307 306 306 307 310 309 310 310 311 311 311 310 311 312 312 313 314 316 316 317 318 319 319 320 320 324 325 328 331 329 327 327 328 329 330 328 327 326 325 326 329 331 331 333 332 330 330 331 332 333 333 333 333 333 334 334
300 300 300 301 303 303 304 302 302 301 301 301 305 304 301 300 300 299 300 303 302 302 298 300 299 302 305 305 307 306 306 306 307 311 311 311 311 312 312 311 310 310 310 310 312 313 314 315 317 318 318 318 317 319 321 325 329 329 327 327 327 327 327 327 324 324 325 324 325 329 329 330 332 332 331 331 332 332 333 333 333 333 333 334 334
300 301 301 306 304 302 302 302 302 301 301 301 304 300 300 300 299 298 297 297 297 298 297 297 297 300 302 305 307 306 306 306 309 311 311 309 310 312 312 311 311 311 312 310 312 313 314 314 314 315 316 316 313 315 320 326 329 327 327 327 327 327 325 324 324 323 324 325 327 328 328 329 330 332 331 331 333 333 332 333 334 334 333 334 334
301 301 301 305 302 302 302 302 302 301 302 300 301 299 301 300 299 297 297 297 296 296 297 296 296 298 301 305 308 306 305 305 306 308 309 309 310 310 312 308 307 307 311 307 307 310 312 311 311 313 309 310 313 315 319 327 329 327 328 328 327 327 325 324 324 323 322 322 324 326 326 328 330 331 331 332 332 333 332 333 333 333 333 333 333
301 299 300 300 303 303 302 302 301 301 302 300 300 301 303 299 298 298 297 297 297 296 296 295 296 297 300 305 307 306 305 305 306 307 309 310 310 310 312 312 310 310 311 309 309 310 309 311 314 314 311 312 314 317 320 327 329 328 329 328 327 326 325 324 324 322 321 321 322 325 326 326 329 332 331 332 332 333 332 332 333 332 332 332 333
299 299 301 301 303 303 303 303 301 302 302 302 300 300 300 300 299 299 298 296 296 296 294 295 296 296 298 303 304 304 305 306 307 308 310 310 310 310 311 313 313 313 314 316 316 317 315 318 318 318 318 318 319 320 323 328 329 328 328 327 326 325 325 323 322 322 320 320 322 324 327 326 327 330 330 331 332 332 331 332 332 332 332 332 332
301 301 301 302 302 303 303 303 301 302 300 301 300 299 299 300 300 301 297 299 298 295 294 296 298 294 298 301 303 304 305 306 308 309 311 311 311 312 311 312 314 314 315 317 316 317 318 320 323 323 323 324 323 324 327 330 329 329 327 326 325 325 324 323 322 320 320 320 319 321 325 328 327 328 327 328 329 329 331 331 332 331 332 331 331
300 302 302 302 303 303 303 302 302 302 301 300 300 299 299 299 300 298 297 302 296 295 296 297 294 294 296 298 300 303 305 307 308 309 312 311 311 312 312 311 311 312 313 314 315 315 315 316 318 316 315 315 315 315 316 318 323 329 327 326 325 323 322 321 320 319 319 318 316 317 320 323 327 329 329 330 330 330 331 330 330 330 330 330 330
300 301 302 301 302 302 303 302 302 301 301 301 300 299 299 299 299 299 298 299 295 296 297 294 293 293 293 296 299 304 305 306 308 309 311 311 311 312 311 311 310 311 311 312 313 312 312 313 313 312 311 311 311 312 312 313 313 315 323 325 325 321 319 318 317 316 316 315 314 313 316 318 321 324 327 328 328 328 328 328 328 328 329 330 331
300 301 301 301 302 302 302 302 302 303 302 301 300 300 300 299 300 299 298 297 296 298 296 295 294 293 295 296 298 302 305 306 307 308 311 311 311 311 311 311 310 309 310 310 311 311 311 310 310 310 309 309 308 309 310 309 310 311 312 315 316 317 316 314 313 314 314 314 312 311 312 315 317 319 322 324 325 326 326 327 327 328 329 330 330
300 300 300 301 302 302 302 303 302 301 302 302 302 300 299 299 300 298 297 297 298 296 294 295 296 293 295 295 296 299 304 305 307 308 311 311 310 311 311 311 310 310 310 310 310 310 310 309 309 309 309 308 308 307 308 307 307 308 309 310 311 312 312 312 311 310 310 310 310 310 309 311 314 315 316 319 321 323 325 326 327 327 328 330 331
299 300 300 301 300 301 302 303 303 302 302 301 301 299 299 300 299 298 298 299 297 296 295 295 294 294 294 295 295 297 302 305 305 307 311 311 311 310 311 310 310 311 310 310 310 310 310 308 307 306 306 306 306 307 307 306 305 305 306 307 308 308 309 309 309 309 308 308 309 308 308 309 309 313 313 314 316 320 322 324 325 326 328 329 330
300 299 301 300 303 305 306 306 304 303 303 301 301 300 299 299 299 297 298 298 296 295 296 295 295 295 294 293 295 296 300 303 305 306 310 311 311 310 310 311 310 311 311 310 308 307 307 308 307 305 304 304 304 304 305 304 305 305 305 305 306 306 306 306 306 306 306 306 306 307 307 307 307 308 308 313 314 315 318 321 323 324 325 327 330
300 299 300 300 301 302 305 305 305 302 302 302 303 301 301 300 299 298 298 298 297 296 295 295 293 294 294 292 294 296 297 301 305 305 306 309 310 310 310 311 312 311 310 309 308 307 306 305 306 305 304 304 304 304 304 304 304 303 304 304 304 305 305 305 305 305 305 305 305 305 306 305 305 306 306 307 312 313 314 317 320 321 322 324 327
299 299 301 301 301 301 303 302 303 302 301 302 302 302 302 300 299 302 297 299 297 297 295 294 294 294 294 293 293 296 296 297 303 305 305 307 308 309 310 311 312 311 311 309 308 307 306 306 306 305 303 302 302 302 303 303 303 303 304 304 304 305 305 305 304 304 304 304 304 304 304 304 304 303 305 305 307 310 313 314 317 318 319 321 323
300 300 299 300 301 301 302 302 301 302 302 302 301 301 302 301 300 299 299 299 297 296 295 295 294 294 293 292 294 296 293 296 299 303 304 305 306 308 309 310 312 311 311 310 309 308 307 306 305 306 305 302 302 301 302 303 303 303 303 303 304 304 303 304 304 304 303 302 301 302 303 302 303 305 305 306 307 307 312 312 313 315 315 317 320
301 301 301 300 300 300 301 301 302 302 302 301 301 301 300 300 300 300 301 298 297 297 296 297 295 294 293 293 295 295 294 294 296 300 303 304 306 306 307 308 309 310 309 309 309 309 308 306 304 305 305 304 304 303 302 302 303 302 302 302 303 303 303 303 303 304 302 301 300 300 301 302 302 304 305 305 305 305 306 310 314 315 315 315 317
300 299 300 301 301 300 301 300 300 301 301 301 300 301 300 300 300 300 299 299 299 298 296 296 296 294 294 295 295 296 294 294 294 296 300 303 304 305 306 306 307 307 306 306 306 307 307 308 306 305 305 303 302 303 303 303 303 302 302 302 302 302 303 303 303 303 302 300 300 301 302 301 302 302 303 303 303 305 305 305 305 305 306 314 314
301 300 300 300 300 300 300 300 300 301 301 300 300 299 299 298 297 298 298 299 298 298 298 296 295 295 296 296 295 295 294 296 293 294 296 299 302 304 305 306 306 305 304 304 303 304 304 304 304 305 305 305 305 304 302 303 303 302 302 302 302 302 301 300 301 301 301 302 300 300 300 300 299 300 301 301 302 302 303 304 304 305 305 308 312
300 300 299 300 300 300 300 299 300 301 300 299 298 298 298 297 297 298 296 297 296 297 297 297 295 295 297 296 295 295 294 295 294 294 294 296 298 302 304 305 305 305 303 303 304 305 305 305 305 304 303 303 303 305 306 305 302 301 303 302 302 302 301 301 301 300 301 301 300 300 300 299 299 299 299 300 300 300 300 301 302 303 304 304 305
298 298 299 300 300 300 300 299 300 300 299 299 299 298 298 298 297 296 296 296 295 296 296 296 297 298 296 296 296 294 294 294 295 294 294 294 294 296 301 303 304 304 304 304 304 305 305 304 305 303 304 302 301 303 304 303 302 301 299 301 301 300 300 301 301 302 302 302 302 301 301 300 299 299 300 299 299 298 299 299 300 300 301 302 302
299 299 300 301 301 301 301 300 300 299 299 300 300 298 299 299 299 298 298 296 297 297 296 297 298 296 296 296 296 296 295 294 294 295 294 294 293 294 295 300 303 304 303 303 303 303 304 304 304 302 301 303 301 303 303 303 299 301 303 301 299 298 300 300 302 303 303 302 302 302 302 301 301 299 298 297 296 297 298 298 299 299 299 300 300
300 300 299 299 301 301 300 300 300 300 300 300 300 300 301 300 301 301 299 298 297 298 298 297 297 297 296 296 296 295 295 294 294 294 293 293 294 293 294 295 299 301 301 301 302 302 303 303 304 303 302 300 300 301 302 302 301 299 297 300 300 300 297 297 297 300 303 303 303 303 303 302 301 299 297 297 297 298 298 299 300 300 300 300 300
301 301 301 301 304 300 301 300 301 301 300 300 301 300 300 300 299 299 299 298 298 297 296 295 297 297 297 297 297 296 296 294 294 294 294 293 294 294 294 294 294 296 299 299 300 301 301 302 303 302 302 300 301 300 302 303 302 301 298 297 297 297 296 297 299 298 299 298 300 301 301 302 301 299 298 298 298 299 299 299 300 301 302 302 302
301 301 302 303 301 300 300 300 300 300 299 300 301 300 298 298 297 296 295 295 295 296 295 295 296 296 296 297 297 297 296 295 294 295 294 295 293 294 294 293 293 293 296 295 297 298 299 300 301 301 301 302 300 301 299 301 301 302 302 300 298 296 294 296 297 294 297 299 299 301 301 301 301 300 299 300 299 299 299 299 301 302 302 302 303
301 303 304 303 301 300 299 299 299 299 301 300 301 300 299 298 297 297 296 296 295 296 296 297 297 296 297 297 296 297 297 295 294 294 294 294 293 293 294 294 293 293 294 293 294 295 296 299 299 300 300 301 301 298 300 300 300 301 302 301 301 301 299 296 295 295 294 296 297 298 299 300 300 300 300 300 300 300 300 300 300 301 301 302 301
300 302 302 302 301 300 299 300 299 300 299 301 301 302 299 298 297 297 298 297 297 297 297 297 297 297 297 296 296 296 297 296 295 294 294 294 293 293 293 293 293 292 293 291 292 294 295 296 298 298 298 299 298 298 297 299 298 298 300 299 299 300 299 299 298 297 293 291 293 296 297 298 298 299 300 300 300 300 300 299 300 299 299 300 300
301 300 300 301 302 302 301 299 299 299 299 299 300 300 301 299 298 297 297 299 299 299 298 297 296 296 296 296 296 296 296 296 296 295 294 294 295 293 293 293 292 292 293 293 291 293 293 293 293 294 295 295 296 297 296 295 297 297 298 297 298 297 298 298 298 297 294 291 292 292 294 296 296 297 298 299 299 298 299 298 298 298 298 298 299
300 302 301 302 301 300 300 300 299 299 299 299 300 299 299 300 298 296 296 297 298 297 297 297 296 296 296 296 296 297 297 296 296 295 294 295 294 293 293 293 292 293 294 291 291 293 293 292 292 293 293 293 294 293 294 296 296 297 298 297 296 295 296 295 295 295 294 295 291 289 290 292 292 294 297 296 297 297 297 297 297 296 297 297 297
299 302 301 301 300 301 300 300 300 300 299 300 299 299 299 299 298 297 297 297 297 297 297 297 296 296 296 296 296 297 297 297 296 296 295 295 294 294 293 293 293 294 294 291 291 291 291 291 292 292 292 291 291 291 292 293 295 295 295 295 295 295 294 294 294 295 295 292 291 293 294 295 295 294 294 297 296 296 296 296 295 295 295 295 295
Wind_Speed
4 4 3 8 12 11 13 15 15 15 16 16 16 17 16 16 17 17 17 18 18 18 17 17 17 17 18 20 20 20 20 20 21 20 19 20 18 19 18 19 18 18 17 16 17 18 14 12 11 12 14 14 12 9 9 9 9 8 7 7 5 6 7 7 8 5 4 4 7 7 13 10 7 7 8 7 6 6 5 6 5 4 1 5 9
3 3 3 4 11 11 12 15 16 16 16 16 16 16 16 17 17 17 17 17 18 18 19 18 17 18 19 19 20 21 21 21 20 20 19 19 19 19 18 17 18 18 17 17 17 18 17 14 12 9 12 17 14 11 10 10 10 10 8 9 7 4 7 4 4 7 6 2 7 7 6 6 7 8 7 7 6 5 4 6 8 4 5 7 8
1 3 3 4 9 10 11 15 15 15 16 16 16 16 17 17 17 17 17 17 18 18 19 20 19 19 19 20 20 20 21 21 21 21 19 18 19 20 18 17 17 17 18 18 17 17 17 16 14 12 10 15 16 12 11 10 10 7 5 8 10 9 6 7 6 7 5 2 5 8 5 7 4 7 7 7 7 4 3 4 8 7 5 9 7
2 1 3 5 9 9 10 14 15 15 15 16 16 16 17 17 17 17 17 17 17 18 19 20 20 20 21 21 21 21 20 21 21 21 20 18 18 19 20 19 18 17 17 17 17 16 17 16 14 11 10 10 12 16 12 14 14 8 8 8 7 8 7 7 7 5 4 1 6 5 2 2 4 5 7 5 8 6 2 3 8 6 7 6 6
1 1 3 3 3 5 11 14 15 16 16 16 16 16 16 17 17 17 17 17 17 18 18 19 20 20 21 22 22 23 22 21 21 21 19 19 18 19 19 20 19 17 16 16 16 15 16 16 14 11 12 10 14 18 16 13 14 10 10 10 8 9 8 7 7 7 4 2 2 0 2 3 5 7 7 7 9 7 3 2 7 3 3 4 5
2 2 1 3 2 2 11 13 14 15 15 15 16 16 17 17 17 17 17 17 17 18 18 18 18 19 20 21 22 23 22 23 21 20 20 19 18 18 18 19 20 19 17 17 15 15 15 14 15 14 13 15 13 17 16 11 11 11 11 12 11 10 9 8 7 6 5 3 2 2 2 6 5 7 13 11 9 8 4 2 2 3 5 5 4
2 1 0 2 2 3 10 12 13 14 14 15 15 16 17 17 17 16 17 17 18 18 18 18 19 19 20 20 20 21 22 22 22 21 19 19 18 18 17 18 19 20 18 16 15 15 14 13 14 13 13 16 19 12 14 12 13 12 13 13 13 11 11 10 7 6 6 4 2 3 5 3 3 3 14 12 11 8 7 5 3 5 5 5 5
1 0 1 1 2 4 9 11 13 14 14 14 15 15 16 17 17 17 17 17 18 18 19 19 19 19 20 21 21 22 21 21 22 21 20 18 18 18 17 17 19 18 17 17 16 15 15 14 13 12 13 14 16 13 14 16 14 12 13 12 13 11 12 11 8 7 5 3 2 4 6 3 9 4 13 12 12 9 8 6 6 7 7 7 2
1 1 1 1 2 6 8 10 12 13 13 14 14 15 16 16 16 17 17 17 18 18 19 19 19 19 20 20 21 21 21 21 21 20 20 19 17 18 18 17 19 18 18 16 15 15 14 11 11 11 11 12 13 13 12 14 14 12 14 14 13 13 12 11 8 9 3 2 4 6 6 5 6 7 11 13 12 10 8 6 5 6 7 6 5
2 2 3 1 1 5 8 9 12 12 13 14 14 15 16 16 16 16 17 18 18 19 19 19 19 20 20 21 21 22 21 21 21 20 20 19 19 18 18 17 20 19 18 17 14 14 14 12 10 10 10 11 11 12 12 13 17 16 13 13 13 14 13 11 10 7 3 4 5 8 3 4 2 7 11 14 12 11 10 6 4 5 3 6 3
3 3 3 2 2 9 8 8 11 12 13 14 14 15 16 16 16 17 17 18 19 20 20 20 19 20 20 21 21 21 21 20 20 20 21 21 19 19 17 16 17 19 18 15 14 14 13 13 10 9 9 9 10 10 15 12 12 15 11 7 3 15 11 12 10 4 4 6 7 4 2 4 3 6 13 13 12 11 9 8 5 3 3 4 3
2 2 2 2 4 8 8 9 10 11 12 14 14 15 16 17 17 17 17 18 19 20 21 20 21 21 20 21 21 20 21 20 19 19 18 20 20 19 18 16 16 17 18 16 14 14 13 13 12 10 10 9 10 10 12 14 11 12 14 7 3 6 6 12 6 4 4 6 7 3 3 0 3 9 14 13 12 11 10 8 7 5 6 5 4
2 2 2 3 3 6 9 9 10 11 12 13 15 15 16 17 17 17 18 18 19 20 20 20 20 21 21 21 21 21 21 20 19 20 20 20 20 19 18 18 16 16 15 14 14 14 12 12 13 11 10 9 9 9 9 12 12 9 16 12 10 12 7 13 5 4 5 6 3 6 4 1 4 11 14 13 12 10 10 9 8 6 6 5 3
1 1 2 3 3 6 9 10 9 9 11 14 14 15 16 17 17 17 18 18 19 20 20 21 20 21 21 21 22 20 20 20 19 19 20 19 19 20 18 16 16 15 14 14 14 13 14 13 13 12 10 9 8 8 8 9 9 5 15 14 15 15 8 11 7 5 5 5 2 7 5 3 5 10 11 10 10 11 13 7 5 7 7 6 4
2 1 2 3 3 3 6 9 8 9 11 14 14 15 16 16 17 17 18 18 19 20 21 21 21 20 21 22 22 22 21 20 19 18 17 18 18 17 18 16 15 15 15 13 12 13 13 13 13 13 12 9 9 6 6 7 8 4 13 14 13 14 10 7 6 5 5 3 3 5 6 2 10 11 9 9 7 5 6 6 4 6 7 6 5
1 0 1 3 3 3 3 5 8 10 11 13 14 15 15 16 17 17 18 18 19 20 20 21 21 21 22 22 23 22 21 19 17 16 17 18 16 15 15 15 14 14 13 13 13 11 13 14 12 12 12 9 7 6 5 7 8 7 10 15 15 14 9 6 5 5 3 5 4 3 5 5 12 9 7 7 7 7 7 7 7 6 6 7 6
2 1 2 4 3 2 2 3 5 10 9 11 14 14 16 16 17 17 18 18 19 19 20 20 21 21 22 22 23 22 21 20 17 18 16 16 15 14 14 15 15 13 12 12 12 12 12 11 11 11 11 9 7 6 6 7 10 7 5 15 15 10 12 7 3 4 2 5 4 3 3 5 7 7 6 6 7 7 5 6 5 2 5 7 7
3 4 5 2 0 1 2 3 3 3 3 5 8 13 15 16 17 18 18 18 18 19 19 20 20 20 21 23 24 23 21 18 18 19 17 16 17 15 13 13 13 12 12 12 10 10 11 12 11 11 10 9 8 4 6 9 10 10 6 12 16 15 16 13 1 2 2 6 5 4 3 3 7 6 6 6 7 7 7 7 4 5 4 5 6
4 5 3 1 0 0 1 3 3 3 3 4 4 5 13 15 16 17 17 18 18 19 19 20 19 18 20 22 23 22 19 18 18 18 16 17 17 15 14 13 13 13 12 11 12 10 11 11 12 10 10 10 8 6 4 7 9 9 6 12 15 16 17 10 2 2 4 4 5 4 5 8 7 6 7 7 7 7 8 8 6 6 6 6 6
3 2 1 2 2 0 1 1 3 3 3 4 4 4 7 14 15 16 16 17 17 18 18 18 18 17 17 22 24 16 14 13 19 15 17 18 17 15 15 13 13 13 12 11 10 10 10 11 11 11 10 9 8 7 5 6 8 5 12 12 14 18 10 4 4 3 2 3 6 5 4 6 7 7 7 7 7 8 9 8 6 5 7 7 8
2 1 0 1 2 1 1 2 2 3 4 4 4 4 5 11 8 11 13 14 15 16 16 14 12 9 11 15 16 11 8 8 8 8 16 13 16 14 14 14 12 11 10 10 10 9 11 11 11 10 10 9 8 8 6 4 5 3 12 13 15 11 6 5 4 4 2 2 5 3 6 5 7 7 7 8 8 8 9 5 7 8 7 9 10
3 2 2 3 4 3 1 1 3 4 4 4 3 3 4 5 7 6 5 7 8 10 7 7 9 6 9 10 9 9 8 8 8 8 7 10 10 12 11 11 9 8 9 9 10 10 10 12 11 10 11 9 9 4 2 2 1 2 7 14 8 5 7 6 4 4 3 2 2 3 4 1 5 7 8 9 9 10 8 7 3 1 1 3 5
3 3 3 4 1 0 1 3 3 4 4 4 3 4 4 5 6 5 5 7 8 6 6 6 5 7 7 8 7 7 9 8 8 9 8 15 13 15 13 11 9 6 5 7 8 10 11 11 10 11 10 10 5 2 2 2 2 6 8 8 5 5 5 4 3 4 4 6 4 4 4 2 3 6 9 9 9 9 9 6 5 4 4 5 6
3 1 1 3 0 2 3 2 3 3 3 4 3 4 4 5 4 5 6 6 6 6 6 5 5 6 7 7 7 8 10 8 11 12 10 8 8 11 11 13 11 10 10 6 9 10 11 9 10 10 8 3 3 4 3 3 4 5 5 6 7 4 5 6 6 5 3 3 3 3 3 2 3 4 7 8 9 9 6 5 3 4 3 3 4
1 2 2 2 2 3 2 1 2 3 2 3 3 4 4 5 3 5 5 6 6 7 6 4 5 7 7 7 7 7 8 8 8 7 6 7 8 7 5 5 5 4 7 6 5 7 7 5 4 4 2 3 4 5 4 4 6 7 7 7 8 7 7 4 3 5 3 4 3 4 3 1 3 5 6 7 8 9 9 5 3 3 2 3 3
2 3 3 2 1 1 3 1 2 2 2 3 3 3 5 3 3 4 6 6 5 7 6 6 6 6 6 7 8 8 8 7 7 8 7 6 7 7 6 5 6 7 5 6 6 6 6 6 5 5 4 5 5 5 4 2 6 7 7 9 10 8 7 7 7 4 6 6 3 3 1 2 4 4 3 4 4 2 3 3 3 3 3 4 5
2 2 2 2 1 2 3 1 1 1 3 3 3 4 3 2 2 3 4 6 6 6 6 6 6 4 6 6 7 7 7 8 7 8 8 6 6 5 6 5 6 6 8 7 8 4 1 2 5 5 5 5 4 4 3 3 7 7 8 10 11 12 12 10 9 7 6 4 4 4 1 2 3 5 5 3 2 2 1 1 4 4 5 6 7
1 3 1 1 1 1 1 2 3 1 2 2 3 4 2 2 3 2 3 5 6 5 6 6 5 6 5 6 6 5 6 8 8 8 8 7 7 5 4 6 6 6 7 7 8 7 6 6 3 2 2 2 2 1 4 5 6 6 8 8 8 9 9 7 4 3 3 4 4 7 9 3 5 7 3 4 4 4 4 5 5 6 7 8 9
4 1 1 1 1 1 0 1 1 1 1 2 4 3 2 3 2 2 3 4 4 4 6 6 5 5 5 6 6 6 5 7 8 9 7 7 7 7 6 6 6 6 6 6 7 6 6 6 6 5 6 5 6 6 7 6 1 6 7 8 7 5 4 5 5 4 3 4 5 7 10 11 11 8 3 2 3 3 3 4 4 5 7 8 8
2 0 0 2 0 1 1 1 1 2 2 3 4 3 2 3 2 2 4 3 4 6 5 5 5 5 4 5 6 5 5 5 7 8 7 7 7 6 6 6 6 6 6 6 6 6 6 6 6 6 7 7 7 6 7 7 8 6 3 6 6 3 4 5 5 5 5 5 5 5 10 11 12 11 10 8 5 4 4 5 6 6 7 7 7
2 1 1 1 1 0 2 2 1 2 2 3 3 3 3 3 2 3 4 2 3 6 6 5 5 4 5 4 5 6 6 5 6 8 7 7 7 6 5 4 5 6 6 5 5 5 5 6 6 6 5 5 6 6 7 7 8 7 7 7 6 5 6 5 6 6 5 5 4 3 5 11 11 11 11 9 8 7 7 6 5 6 7 7 8
1 3 2 2 1 3 3 1 1 1 2 4 4 3 3 2 2 3 4 1 3 5 6 5 4 5 4 4 5 7 6 4 5 6 6 8 7 7 6 6 5 4 5 5 5 5 5 5 6 6 6 6 7 8 6 7 8 7 7 8 6 6 6 6 6 6 5 5 4 4 4 5 9 10 10 9 8 7 6 6 6 6 7 7 7
3 2 3 3 4 4 2 3 1 2 3 4 4 3 3 2 2 3 3 1 3 4 6 6 5 5 4 4 5 7 6 5 6 6 4 6 6 7 7 5 5 4 4 5 6 5 4 5 6 5 6 7 8 7 6 8 8 7 7 7 6 7 6 5 5 5 5 4 4 4 4 4 4 6 7 7 7 7 6 6 5 6 7 7 7
5 3 2 3 4 2 2 3 2 2 4 3 3 3 3 2 3 3 2 1 2 4 4 5 5 6 4 5 4 6 6 6 5 7 4 4 5 6 7 6 4 3 4 4 6 6 6 5 5 5 6 7 8 6 7 8 6 6 6 5 6 5 5 5 5 4 4 4 3 4 4 4 4 3 3 4 5 6 6 5 5 5 6 6 8
4 4 5 4 3 2 2 2 2 3 4 4 4 3 3 3 3 4 1 1 2 4 4 3 4 5 4 5 4 6 5 7 6 6 6 4 4 5 7 6 5 5 5 5 4 4 5 5 5 5 6 7 7 6 7 7 6 7 5 4 5 5 5 5 4 4 4 3 3 3 4 4 3 3 2 2 2 2 3 3 3 3 4 5 7
3 3 3 3 2 3 2 2 2 4 4 4 3 3 3 4 3 4 2 0 2 4 3 2 3 4 4 4 4 5 4 7 7 7 6 6 4 4 5 6 4 4 5 5 4 5 5 4 4 3 5 6 6 7 6 6 6 5 4 4 4 4 5 4 4 3 3 3 3 3 3 4 3 1 1 1 1 2 3 1 1 2 4 6 6
2 2 2 2 2 3 3 3 4 4 4 4 3 2 2 3 4 4 2 1 3 3 4 1 3 3 3 4 4 5 4 5 7 7 7 6 5 5 4 4 4 5 4 5 6 5 6 5 6 6 4 4 6 6 5 5 5 5 4 4 3 3 4 3 4 2 2 3 2 3 3 3 3 4 3 3 3 3 4 3 1 0 3 5 5
2 2 2 2 3 3 2 2 3 2 3 3 4 3 3 4 4 5 4 4 4 3 3 1 1 3 2 4 4 5 4 5 5 7 7 7 5 5 5 5 4 5 5 5 5 4 4 4 5 5 5 5 5 5 6 5 4 3 3 4 3 3 3 3 2 2 4 3 3 2 2 3 2 2 1 1 1 1 0 1 2 2 2 3 5
2 2 2 3 3 3 3 4 4 4 4 4 4 4 4 5 6 5 4 3 4 4 4 1 1 2 1 2 4 4 4 5 4 5 6 7 7 6 6 5 4 4 4 4 4 3 3 3 4 5 5 5 5 5 4 4 4 4 4 4 4 4 2 2 1 1 1 1 2 1 1 1 1 1 0 1 1 1 0 1 1 1 1 3 4
1 2 3 2 3 4 3 4 4 4 3 3 2 4 5 4 3 1 2 2 3 1 2 4 2 2 0 2 3 4 3 4 4 5 4 6 7 6 6 7 5 3 3 3 3 2 2 3 3 3 4 4 4 3 3 4 3 3 3 2 2 2 3 2 2 1 1 1 0 0 1 0 0 1 0 1 2 2 2 2 2 2 1 2 4
3 3 3 4 4 4 3 4 4 4 3 2 2 2 2 4 3 2 2 2 3 2 3 3 3 2 0 1 3 5 3 4 3 4 4 5 6 6 6 7 7 5 3 2 1 1 1 1 2 3 3 4 3 2 1 2 1 1 1 2 1 1 0 1 1 1 2 2 2 2 2 2 2 1 0 0 0 1 2 2 3 4 3 2 3
4 4 5 5 4 4 4 4 3 3 4 2 2 2 1 1 1 3 2 3 4 3 3 3 1 1 1 2 3 3 3 4 2 3 3 3 5 6 6 5 6 7 6 4 4 4 4 4 3 1 1 4 2 1 2 2 0 1 1 0 1 1 2 3 3 3 3 3 4 4 4 3 2 1 0 1 2 2 3 2 2 2 3 3 2
5 4 3 3 3 3 3 4 4 4 3 3 2 3 1 2 1 2 1 3 3 4 4 4 1 1 2 3 3 3 3 3 2 2 3 2 3 4 6 6 5 6 7 6 5 6 6 6 6 4 3 1 2 1 2 4 1 2 2 2 1 0 1 2 3 3 3 3 4 4 4 4 4 3 3 1 2 3 3 2 2 2 3 3 3
4 4 4 5 4 4 4 4 4 3 3 2 2 2 2 2 2 1 4 3 6 4 5 4 4 3 4 3 3 4 3 2 3 2 3 3 2 2 3 5 5 5 6 6 5 5 6 6 6 7 4 3 3 0 1 2 2 2 2 0 2 2 2 1 3 3 6 5 6 5 4 5 5 4 4 4 5 4 4 3 3 4 4 3 3
4 5 5 4 3 4 3 2 2 2 2 2 2 2 1 1 3 4 4 4 4 4 4 5 4 4 3 3 5 4 3 3 2 2 2 3 2 2 2 2 3 4 4 5 4 4 4 5 6 6 7 2 6 2 1 1 2 1 4 1 1 1 1 1 1 2 3 3 4 4 4 4 4 5 5 5 5 5 5 5 5 5 5 5 4
4 6 5 4 3 3 4 3 3 3 3 3 3 2 2 3 2 3 3 3 4 2 3 2 2 4 5 4 4 5 4 3 3 2 1 2 3 1 1 2 3 3 3 3 4 4 4 4 5 4 5 6 3 5 3 2 1 1 1 1 2 2 2 3 1 2 1 5 4 5 5 5 5 5 6 6 6 6 6 6 6 6 5 5 5
4 3 3 3 3 4 4 4 4 4 4 4 3 3 3 3 4 5 5 5 5 5 3 2 2 2 1 1 3 4 5 4 4 4 3 2 3 3 2 2 3 4 2 2 3 1 2 1 2 4 4 5 5 3 6 3 2 1 1 1 1 1 1 1 2 1 2 1 2 5 5 5 6 5 5 5 6 6 6 6 6 6 5 5 5
2 2 3 4 4 5 5 5 4 5 4 4 4 5 5 5 5 5 5 5 5 7 5 5 4 2 2 4 3 4 4 5 4 4 4 4 3 4 3 2 3 4 2 3 2 0 2 2 0 1 3 4 4 3 4 5 2 2 2 2 2 2 2 2 1 3 2 1 3 3 3 5 4 5 6 6 6 7 6 6 6 6 6 5 5
2 3 4 5 5 5 4 4 5 4 4 5 4 5 5 6 6 4 4 5 5 6 5 4 4 4 4 4 4 4 4 5 5 5 5 5 4 4 4 4 4 4 3 4 3 0 1 1 1 2 1 2 2 2 2 5 4 2 1 2 2 3 3 4 3 1 3 2 6 4 4 1 2 4 6 6 6 6 7 7 7 6 5 5 5
4 4 4 4 4 4 4 5 6 5 5 5 5 5 5 5 5 5 5 6 4 4 3 4 4 3 4 4 4 5 5 5 6 5 5 5 5 5 4 4 4 4 4 4 4 1 1 2 4 4 2 1 2 3 4 4 3 4 3 1 1 2 2 3 3 4 4 4 7 4 2 3 4 5 5 6 6 6 6 6 5 5 6 6 6
4 4 4 4 4 5 5 5 7 6 5 6 6 6 5 5 6 5 6 6 6 5 4 5 4 3 4 5 5 6 6 6 6 6 6 5 5 5 5 5 5 4 4 4 5 4 4 4 4 4 4 4 4 4 3 3 2 4 5 5 4 4 4 3 4 4 4 4 3 6 6 5 6 7 4 6 6 6 5 5 5 6 6 6 6
Wind_Direction
17 351 349 351 351 344 349 346 346 344 342 341 340 342 343 342 339 338 337 336 335 333 333 332 332 332 331 332 334 332 332 332 329 327 327 323 321 320 316 314 314 317 313 315 319 322 317 307 286 272 273 272 281 249 244 216 221 213 199 216 203 173 175 163 158 143 93 107 106 135 133 138 153 129 115 96 90 71 36 43 47 354 13 121 109
355 344 353 344 342 349 348 347 345 343 342 341 341 341 341 340 339 336 335 335 333 332 330 332 333 332 331 330 330 330 329 328 325 323 322 322 320 319 316 313 311 315 317 314 319 320 320 308 303 283 261 266 263 273 242 233 197 224 190 208 203 216 176 148 119 97 108 115 147 130 133 137 143 134 133 115 98 81 25 36 45 4 99 108 99
50 357 360 329 338 351 349 346 342 341 340 341 341 342 341 339 337 335 334 333 332 330 330 331 331 332 329 329 329 329 328 327 325 321 319 317 315 318 318 312 309 309 311 311 315 314 318 316 314 308 290 270 269 274 285 262 230 206 210 150 183 188 175 111 111 110 106 115 144 153 148 155 154 145 152 128 107 101 30 36 47 80 109 102 80
47 8 2 330 336 346 351 345 341 341 340 341 342 341 340 338 336 334 333 331 330 330 330 330 330 329 328 329 329 328 328 327 324 322 321 320 317 313 316 315 308 307 307 307 311 313 314 317 318 317 293 285 263 260 249 267 267 213 205 164 147 148 152 127 122 113 107 60 49 98 112 137 142 195 141 132 119 115 43 343 67 98 114 104 100
86 46 9 318 337 335 351 347 342 339 338 340 340 340 338 337 335 334 332 330 329 329 329 329 328 328 328 328 328 328 327 326 325 321 318 318 316 316 311 313 311 304 302 302 306 310 312 313 315 329 302 295 258 243 235 232 258 227 212 174 168 150 149 146 136 135 120 105 70 173 176 193 166 177 146 142 135 121 85 333 66 104 125 122 120
58 75 333 315 330 342 352 346 339 336 336 338 339 339 337 336 335 333 332 330 329 329 328 326 327 326 324 325 326 326 326 326 325 321 317 316 315 313 313 309 310 306 297 296 301 305 307 309 314 331 329 321 307 251 244 238 258 251 212 201 173 164 151 144 148 144 133 113 170 231 232 200 178 166 157 149 144 133 143 140 109 136 141 143 141
55 95 234 291 314 350 349 341 334 334 336 336 338 338 336 334 334 333 331 330 330 328 326 326 324 322 319 321 323 323 324 324 323 321 317 314 314 312 313 309 305 303 299 292 290 294 300 309 313 330 325 322 334 301 246 237 235 244 221 206 178 173 152 146 146 138 137 130 189 259 260 250 166 147 154 156 148 152 156 168 176 161 152 162 149
55 115 4 289 320 7 349 337 333 333 334 336 337 336 335 334 334 333 332 330 329 327 325 324 323 321 321 322 323 324 323 322 321 319 317 314 312 311 312 309 303 299 289 287 292 287 292 306 313 317 320 320 333 334 244 233 234 235 234 207 195 170 154 148 150 141 157 160 209 236 249 262 130 149 160 153 152 161 167 168 172 168 175 160 96
359 349 311 355 302 354 340 331 329 330 332 335 335 335 335 335 334 332 331 330 327 326 325 324 323 322 320 320 321 321 321 320 317 315 312 311 311 311 310 309 304 299 292 285 285 284 284 299 313 313 322 330 328 332 280 255 249 251 231 208 201 162 154 147 156 143 176 226 211 229 241 243 135 142 158 154 157 160 169 169 167 194 161 153 153
17 9 343 333 336 337 326 322 326 328 330 333 335 335 335 336 335 332 330 328 327 325 325 324 324 323 321 319 320 322 323 319 315 313 309 308 308 306 310 312 303 299 293 288 285 287 284 284 306 312 320 326 324 322 313 256 235 230 227 216 197 167 157 154 150 151 178 219 234 226 205 23 120 139 159 157 158 163 168 154 112 55 115 126 165
34 354 315 316 3 318 312 315 322 325 329 333 334 335 336 336 336 333 330 327 326 325 326 327 327 325 323 321 321 322 322 322 314 312 310 306 306 305 306 305 300 296 293 291 284 284 281 281 295 306 313 317 314 322 310 319 267 233 225 228 219 179 161 144 142 169 206 218 235 228 102 47 21 124 157 160 165 163 166 119 138 132 160 144 149
17 322 311 334 313 310 314 312 311 321 327 332 335 335 335 335 335 334 330 327 326 325 328 329 328 327 326 324 324 323 322 321 315 309 305 304 305 304 303 305 302 298 296 294 284 280 285 282 277 296 305 307 303 311 309 328 324 225 224 213 300 323 157 139 147 178 213 238 236 148 111 111 61 152 152 156 166 164 165 152 136 153 175 174 152
1 318 336 304 315 318 309 308 311 315 322 332 334 333 332 333 334 334 330 328 326 326 329 330 329 329 329 328 326 325 324 322 317 311 310 309 307 304 301 301 302 294 289 292 289 279 278 294 283 280 303 295 300 311 314 323 341 217 210 197 177 216 183 147 159 199 219 231 242 101 108 103 86 152 154 161 169 173 172 167 160 158 160 171 171
310 315 311 319 316 293 309 316 313 313 323 331 332 329 328 330 332 332 330 327 325 326 330 331 331 331 331 331 328 325 325 323 321 316 315 312 309 306 301 298 301 297 295 292 288 285 278 289 292 279 286 291 288 285 287 308 344 242 208 194 180 195 194 155 175 200 226 225 187 110 111 101 122 143 153 160 165 198 179 181 184 188 189 176 193
278 315 286 293 277 303 309 314 325 325 327 328 328 326 325 326 330 330 329 326 325 326 330 333 333 333 334 334 333 329 325 324 322 316 312 312 310 308 308 304 299 296 289 287 287 282 281 285 285 281 278 279 284 285 309 322 328 333 213 194 180 187 189 172 181 204 224 193 119 113 129 142 142 143 154 161 161 156 163 188 193 191 197 205 208
243 199 278 273 280 295 300 307 329 331 328 327 328 326 325 326 328 329 327 324 323 325 329 331 333 333 336 336 336 334 329 327 322 317 315 319 315 309 307 302 293 293 290 281 278 287 279 273 273 277 273 267 287 296 307 319 323 339 210 195 184 189 179 172 199 206 217 130 119 93 128 111 142 144 158 172 173 174 179 169 180 189 204 215 206
200 173 262 256 247 262 299 322 324 333 333 329 328 328 326 327 328 327 323 321 320 322 326 329 331 333 338 338 338 337 335 333 325 321 326 324 317 308 302 300 297 294 286 282 282 279 274 267 265 266 266 263 280 293 302 318 327 328 234 186 175 175 163 216 237 210 210 127 123 114 101 110 130 141 148 174 182 185 198 198 132 199 223 211 216
207 172 225 222 186 315 319 319 325 327 325 331 324 326 327 326 325 323 320 320 321 321 324 327 330 333 341 342 339 341 337 332 324 327 329 329 324 316 315 311 304 300 292 279 275 283 275 272 267 264 260 256 268 300 296 307 328 322 249 178 159 165 167 198 336 3 324 137 124 127 112 138 145 153 169 175 191 197 203 219 215 224 240 247 239
212 200 216 125 165 357 330 320 316 330 335 329 326 318 325 321 320 321 325 327 326 324 326 330 332 335 341 342 339 338 335 336 336 330 326 326 329 330 321 310 302 296 295 286 276 277 278 268 266 262 258 255 273 284 298 304 326 321 178 144 155 156 174 189 123 31 345 118 118 126 148 183 160 169 180 193 198 203 213 222 216 228 237 245 251
155 177 239 157 126 70 289 299 323 322 342 332 323 317 309 316 321 328 330 331 330 329 332 334 333 336 342 344 342 331 333 334 333 333 323 330 328 326 320 317 312 307 299 288 279 269 272 270 258 261 264 257 268 273 255 291 316 319 150 150 157 152 171 156 103 78 21 41 79 54 44 145 157 168 188 200 208 214 218 220 231 243 238 237 246
36 341 104 118 134 118 3 345 307 344 342 334 308 307 301 312 325 320 325 326 331 332 335 331 326 329 344 338 334 327 328 325 329 334 328 322 323 318 322 328 323 310 298 289 267 259 259 260 253 249 259 258 267 259 254 282 311 1 161 158 151 151 155 147 114 111 79 44 57 67 64 115 153 179 194 199 210 216 223 203 233 230 231 229 227
329 345 10 38 59 43 337 330 357 341 340 323 307 311 302 324 324 315 322 327 326 329 334 327 329 328 341 336 328 330 328 323 321 331 322 314 303 314 338 335 334 318 301 287 268 256 252 245 247 243 246 245 257 259 276 286 231 70 168 141 118 131 142 135 126 129 124 94 69 77 71 22 165 183 198 201 207 215 207 209 212 251 291 309 298
343 14 359 1 49 191 61 15 349 342 334 319 316 311 329 332 309 320 325 332 321 331 330 324 332 332 332 328 324 329 331 322 320 327 339 326 325 331 327 315 292 281 271 270 257 245 248 249 242 239 241 239 260 279 218 222 114 118 150 140 119 115 118 93 110 112 145 137 190 167 134 199 205 194 197 206 209 212 212 191 232 253 269 275 279
351 4 315 280 66 75 62 23 11 330 323 316 318 325 329 306 304 325 328 321 317 333 324 324 336 327 324 324 328 338 336 325 325 332 346 329 320 320 312 293 300 300 277 256 242 232 234 235 237 241 247 278 288 256 222 183 116 111 137 136 128 109 102 140 156 161 136 140 170 136 150 183 222 211 206 209 215 215 203 210 214 241 257 279 288
326 340 312 2 10 77 81 37 342 304 327 318 318 319 302 296 323 324 322 313 325 329 317 334 330 320 324 328 337 338 335 328 327 331 333 327 320 322 317 297 295 284 269 243 248 226 214 216 211 227 238 254 245 245 237 173 136 145 157 144 137 139 152 155 179 156 157 190 188 196 211 220 248 226 211 214 217 218 214 182 187 202 226 266 275
353 354 344 326 331 88 109 82 320 305 323 308 301 292 298 307 331 313 316 313 335 318 322 336 321 321 331 339 343 339 327 323 327 330 324 328 323 329 326 324 316 300 270 244 235 172 188 199 178 190 194 213 221 240 246 212 144 149 157 149 143 151 158 180 191 180 180 194 184 174 228 275 299 278 227 200 212 109 93 147 197 243 260 304 303
339 303 319 285 32 66 100 104 268 285 294 283 302 286 279 303 306 306 320 313 324 316 331 324 313 327 331 345 346 337 330 328 331 333 327 335 332 329 326 328 336 339 346 346 2 14 349 172 166 182 190 189 207 231 234 228 146 159 160 156 158 159 174 179 190 180 183 163 134 90 34 280 290 286 332 333 321 302 317 283 283 291 298 309 323
313 276 283 6 302 112 141 186 219 226 272 288 289 278 282 325 298 305 315 298 314 324 322 311 310 337 333 341 340 329 332 330 335 335 326 334 344 332 329 342 338 344 357 354 359 8 0 0 35 93 122 84 48 308 232 185 147 160 161 156 166 170 161 171 152 151 135 106 76 55 49 32 253 252 278 287 280 264 277 278 294 315 329 325 323
239 255 310 309 261 142 122 259 198 206 245 267 272 268 294 291 286 310 300 295 310 321 307 307 325 332 338 336 336 334 337 334 338 334 321 338 347 0 352 352 348 356 3 9 358 3 356 4 29 42 50 51 45 27 22 32 86 160 164 161 167 169 148 139 134 108 93 86 75 54 52 45 49 60 63 9 338 327 347 9 360 339 333 322 317
209 169 238 248 182 114 259 247 212 187 221 251 259 277 278 282 286 292 277 294 316 313 303 314 323 337 337 333 331 332 332 334 342 332 332 342 351 5 6 354 357 357 359 9 8 12 7 10 23 29 43 36 46 34 28 38 41 27 114 152 154 105 94 102 92 82 74 79 74 59 50 49 47 51 58 55 40 29 13 1 357 338 318 312 316
149 204 215 221 160 206 236 231 220 208 201 243 263 259 262 269 277 275 278 293 321 307 305 314 325 336 327 332 334 331 327 334 342 332 338 343 354 355 9 349 15 5 359 2 7 21 29 29 33 38 54 61 59 45 32 41 43 37 40 64 63 80 77 73 74 82 77 67 65 61 54 57 50 43 41 38 25 14 1 351 338 326 318 315 316
181 218 203 189 205 224 233 220 233 222 211 244 252 253 266 256 280 285 291 285 320 298 308 317 326 332 327 336 347 331 325 336 332 333 340 349 358 358 3 14 21 20 3 359 6 17 38 43 46 51 58 67 65 54 42 46 50 38 39 50 56 71 72 78 82 72 75 73 66 53 46 49 53 47 42 36 30 19 5 351 341 329 319 320 316
210 199 211 199 222 223 206 232 222 250 239 243 250 257 270 280 284 289 285 293 298 313 310 313 326 330 329 337 357 333 325 339 327 325 343 359 6 2 354 14 22 25 12 20 13 360 13 42 47 45 55 60 60 63 63 52 51 42 39 47 57 60 61 75 76 78 80 80 75 65 56 48 41 41 39 39 29 23 15 357 339 338 337 326 330
203 210 207 242 239 216 199 204 217 243 253 245 265 276 283 292 280 280 285 355 313 309 301 313 331 325 332 338 1 336 326 331 331 323 334 2 18 14 353 359 20 26 26 22 29 17 18 27 45 56 60 64 66 59 64 61 51 52 46 44 59 59 63 66 69 79 81 83 86 88 80 67 52 36 12 20 27 29 18 7 353 348 343 333 332
195 200 212 230 251 255 234 215 211 242 256 252 234 240 261 265 277 271 289 271 306 289 292 317 330 322 337 337 358 336 330 333 330 328 320 349 19 25 3 352 16 17 23 27 34 29 25 31 22 45 60 63 71 68 69 78 71 55 51 48 60 68 69 72 67 67 72 88 84 86 87 77 73 46 33 344 336 49 25 18 17 14 15 7 351
216 215 216 221 242 258 248 240 236 246 257 255 251 221 235 250 252 267 255 171 275 285 282 306 318 320 334 339 347 332 335 338 332 331 329 337 5 21 19 355 5 26 30 25 30 42 22 23 24 32 63 57 64 59 51 74 74 80 70 62 71 71 83 83 78 79 80 74 82 90 96 104 98 121 214 226 228 214 178 80 50 51 39 34 32
253 257 245 246 254 263 262 253 256 254 263 279 280 269 247 262 264 253 241 218 243 264 284 282 312 317 335 343 338 327 334 346 337 332 334 331 348 357 2 8 15 25 29 33 28 32 43 29 25 30 35 83 84 85 74 65 67 68 67 68 64 86 87 98 108 120 113 100 112 129 131 143 154 191 211 210 213 226 183 175 265 284 57 36 29
260 261 279 277 267 274 272 267 268 267 272 266 267 267 264 252 246 248 230 212 228 229 251 272 295 309 343 350 322 328 335 344 345 337 336 331 337 349 346 351 24 47 37 36 37 29 47 60 48 30 34 35 47 62 70 66 59 52 48 49 38 67 104 112 115 152 150 146 147 150 158 157 159 189 198 236 231 248 263 239 289 293 111 42 22
282 272 252 251 264 277 272 266 256 254 256 253 257 266 268 265 257 251 261 236 248 232 210 239 227 280 7 337 318 325 333 339 343 344 343 335 336 347 344 342 11 38 60 67 49 22 24 46 73 69 73 68 64 55 58 61 48 35 32 25 16 9 15 33 40 64 100 133 130 137 219 196 151 197 189 257 300 5 350 322 306 296 297 14 12
238 259 270 272 261 267 275 281 272 251 243 247 261 268 266 269 301 310 300 238 252 233 201 196 199 242 71 325 317 306 338 329 340 348 354 344 338 344 344 339 352 23 40 52 61 57 54 59 54 94 94 85 97 105 107 80 85 88 63 38 26 14 2 6 359 15 36 4 348 202 145 98 233 186 98 352 4 358 339 310 309 291 303 348 348
216 238 249 244 243 240 248 259 249 247 233 253 271 255 301 333 334 293 267 308 321 302 288 252 201 181 129 282 299 301 331 325 339 355 353 353 345 337 347 344 342 351 14 29 43 47 28 84 151 111 107 102 84 93 116 125 144 47 156 156 191 223 134 267 262 253 221 196 192 209 178 197 223 163 199 17 347 315 307 314 320 326 329 344 339
257 231 223 230 227 230 227 250 277 281 262 232 243 299 277 236 246 280 314 306 315 318 303 326 277 171 197 233 280 295 319 307 329 344 347 359 354 346 340 346 344 341 338 355 2 14 1 10 17 55 89 126 128 118 146 88 97 205 137 255 272 239 206 216 221 226 206 202 190 193 178 199 201 169 135 181 246 254 261 267 283 302 307 313 318
230 246 240 210 229 231 236 244 245 249 258 237 222 252 274 288 243 271 335 303 278 267 255 240 256 271 239 214 235 271 283 305 321 337 322 344 13 357 340 334 349 341 344 347 357 5 357 359 0 22 352 337 122 164 117 120 167 294 238 120 257 106 294 304 256 228 205 213 199 201 192 191 194 172 179 224 252 249 252 257 276 276 279 293 289
211 238 252 239 223 223 222 225 226 221 230 249 223 222 243 276 336 297 282 248 261 289 302 293 267 263 275 244 230 237 243 268 291 317 330 337 360 349 353 345 339 345 335 341 349 6 356 350 357 352 17 2 349 358 155 130 123 76 27 126 233 168 328 293 218 247 188 204 191 210 193 195 186 183 178 214 224 220 225 219 236 242 247 253 252
198 221 230 219 190 199 216 220 223 219 227 228 224 199 230 299 275 280 275 310 318 299 307 301 249 220 233 210 227 217 231 246 271 284 275 303 316 336 352 339 330 330 338 345 355 355 339 355 352 356 350 13 342 348 320 83 99 131 144 59 335 69 194 241 158 271 192 214 237 225 217 199 189 191 198 220 217 209 209 215 221 223 230 228 233
214 229 215 202 189 214 212 202 203 208 211 227 219 182 195 216 270 289 292 256 276 264 252 243 207 217 226 210 188 184 197 219 240 265 283 294 306 308 324 321 323 331 348 345 325 2 359 14 350 341 340 344 348 333 318 324 190 172 182 181 172 177 187 262 60 269 283 223 218 212 218 209 205 197 201 208 205 215 205 218 213 218 213 214 219
237 194 168 195 217 228 227 218 211 212 205 197 183 166 206 228 228 231 235 251 261 272 259 293 254 252 234 183 202 188 195 193 221 224 237 247 263 289 291 291 293 301 301 344 324 359 336 42 360 351 329 332 347 335 318 292 326 318 237 264 205 246 145 75 255 349 321 308 218 203 232 221 212 216 215 216 214 209 216 211 214 211 210 210 212
221 163 195 208 219 231 223 221 221 219 216 196 188 184 195 208 222 232 236 247 247 258 271 270 269 251 259 260 253 243 200 194 201 212 218 225 235 267 263 268 278 273 281 272 269 353 20 339 278 265 300 288 295 292 295 317 288 277 215 223 244 261 247 239 199 178 182 245 295 287 264 228 217 222 221 223 218 209 211 213 210 211 213 214 208
221 218 219 217 218 222 226 230 231 226 228 209 202 200 198 206 216 223 246 237 231 244 251 259 264 260 260 277 260 255 228 204 200 202 208 211 213 223 240 244 262 276 274 271 264 165 202 245 306 324 295 306 326 305 336 285 314 269 252 284 241 254 250 230 222 159 215 244 275 230 262 299 252 256 243 230 228 218 209 209 207 208 210 220 214
241 230 223 206 216 223 229 230 239 227 224 219 208 213 206 209 222 235 236 253 254 267 262 257 253 256 246 257 252 251 245 217 211 206 204 204 209 211 223 223 231 251 265 261 260 208 237 240 239 239 254 283 285 284 257 262 297 305 313 267 260 266 254 288 250 225 258 226 244 276 232 205 263 266 239 234 228 225 215 211 213 211 217 221 222
250 214 219 215 215 215 222 230 237 229 217 213 204 213 209 206 219 224 228 242 248 243 258 270 264 261 242 247 242 241 236 230 199 210 205 206 206 207 215 219 217 227 236 250 249 227 232 235 237 235 242 236 243 252 279 282 272 291 298 297 260 235 214 207 230 224 210 239 270 276 279 253 243 277 266 221 221 226 215 213 214 224 226 230 229